KD3ADD Weather Reports


time (UTC)temp
F
wind
direction
speed
knots
gust
knots
rain 1hr
in
rain 24hr
in
rain mn
in
humidity
%
barometer
mb
20260504100537 42 311 0.0 1.7 0.00 0.00 0.00 67 1013.8
20260504081558 43 0 0.0 0.9 0.00 0.00 0.00 63 1014.0
20260504081035 43 0 0.0 0.9 0.00 0.00 0.00 62 1014.0
20260504080535 44 0 0.0 0.9 0.00 0.00 0.00 62 1014.0
20260504050535 47 0 0.0 0.0 0.00 0.00 0.00 53 1014.0
20260504045534 48 0 0.0 0.0 0.00 0.00 0.00 51 1014.1
20260504045034 48 0 0.0 0.0 0.00 0.00 0.00 51 1014.1
20260504044546 48 0 0.0 0.0 0.00 0.00 0.00 50 1014.1
20260504044037 48 0 0.0 0.0 0.00 0.00 0.00 50 1014.1
20260504043537 48 0 0.0 1.7 0.00 0.00 0.00 51 1014.0
20260504043048 48 0 0.0 1.7 0.00 0.00 0.00 50 1014.0
20260504042537 48 0 0.0 1.7 0.00 0.00 0.00 50 1014.0
20260504042038 49 0 0.0 1.7 0.00 0.00 0.00 50 1013.9
20260504041545 49 289 0.0 0.9 0.00 0.00 0.00 49 1014.0
20260504041037 49 0 0.0 0.0 0.00 0.00 0.00 49 1014.0
20260504040537 49 0 0.0 0.0 0.00 0.00 0.00 49 1014.0
20260504040054 50 0 0.0 1.7 0.00 0.00 0.00 48 1014.0
20260504035540 50 0 0.0 1.7 0.00 0.00 0.00 48 1013.9
20260504035036 50 0 0.0 1.7 0.00 0.00 0.00 48 1013.9
20260504034600 50 0 0.0 1.7 0.00 0.00 0.00 48 1013.9
20260504034036 50 0 0.0 1.7 0.00 0.00 0.00 48 1013.9
20260504033536 50 298 0.0 1.7 0.00 0.00 0.00 48 1013.8
20260504033045 50 298 0.0 1.7 0.00 0.00 0.00 47 1013.8
20260504032536 50 0 0.0 1.7 0.00 0.00 0.00 47 1013.8
20260504032038 50 0 0.0 1.7 0.00 0.00 0.00 47 1013.9
20260504031543 50 286 0.0 1.7 0.00 0.00 0.00 47 1013.7
20260504031037 50 0 0.0 1.7 0.00 0.00 0.00 47 1013.7
20260504030537 50 0 0.0 1.7 0.00 0.00 0.00 46 1013.7
20260504030045 50 271 0.0 1.7 0.00 0.00 0.00 47 1013.6
20260504025537 51 0 0.0 0.0 0.00 0.00 0.00 46 1013.7
20260504025037 51 0 0.0 1.7 0.00 0.00 0.00 46 1013.6
20260504024550 51 0 0.0 1.7 0.00 0.00 0.00 46 1013.7
20260504024037 51 0 0.0 1.7 0.00 0.00 0.00 46 1013.7
20260504023537 51 0 0.0 1.7 0.00 0.00 0.00 46 1013.6
20260504023046 51 0 0.0 1.7 0.00 0.00 0.00 46 1013.7
20260504022537 51 0 0.0 1.7 0.00 0.00 0.00 46 1013.7
20260504022037 51 0 0.0 1.7 0.00 0.00 0.00 46 1013.7
20260504021543 51 0 0.0 1.7 0.00 0.00 0.00 45 1013.7
20260504021038 51 0 0.0 1.7 0.00 0.00 0.00 45 1013.7
20260504020536 51 0 0.0 1.7 0.00 0.00 0.00 45 1013.7
20260504020053 52 0 0.0 1.7 0.00 0.00 0.00 44 1013.7
20260504015538 52 0 0.0 1.7 0.00 0.00 0.00 44 1013.7
20260504015036 52 0 0.0 1.7 0.00 0.00 0.00 43 1013.7
20260504014559 53 0 0.0 1.7 0.00 0.00 0.00 43 1013.6
20260504014038 53 0 0.0 1.7 0.00 0.00 0.00 43 1013.6
20260504013537 53 0 0.0 1.7 0.00 0.00 0.00 43 1013.5
20260504013053 53 0 0.0 1.7 0.00 0.00 0.00 42 1013.5
20260504012537 53 0 0.0 1.7 0.00 0.00 0.00 41 1013.4
20260504012037 53 0 0.0 1.7 0.00 0.00 0.00 41 1013.4
20260504011558 54 0 0.0 0.9 0.00 0.00 0.00 41 1013.4
20260504011036 54 0 0.0 0.9 0.00 0.00 0.00 41 1013.4
20260504010537 54 0 0.0 0.9 0.00 0.00 0.00 40 1013.3
20260504010048 55 0 0.0 0.9 0.00 0.00 0.00 39 1013.3
20260504005538 55 0 0.0 1.7 0.00 0.00 0.00 39 1013.3
20260504005037 55 0 0.0 1.7 0.00 0.00 0.00 38 1013.3
20260504004546 55 0 0.0 1.7 0.00 0.00 0.00 38 1013.3
20260504004037 56 0 0.0 1.7 0.00 0.00 0.00 38 1013.2
20260504003541 56 259 0.0 1.7 0.00 0.00 0.00 37 1013.2
20260504003059 56 0 0.0 1.7 0.00 0.00 0.00 37 1013.1
20260504002537 56 290 0.0 2.6 0.00 0.00 0.00 36 1013.1
20260504002037 57 284 0.0 2.6 0.00 0.00 0.00 36 1013.1
20260504001546 57 267 0.0 5.2 0.00 0.00 0.00 36 1013.0
20260504001037 57 288 0.0 5.2 0.00 0.00 0.00 35 1013.0
20260504000538 57 267 0.9 5.2 0.00 0.00 0.00 35 1012.9
20260504000048 57 283 0.0 3.5 0.00 0.00 0.00 35 1012.8
20260503235541 58 277 0.9 3.5 0.00 0.00 0.00 34 1012.7
20260503235037 58 318 0.9 2.6 0.00 0.00 0.00 34 1012.5
20260503234551 58 274 0.0 4.3 0.00 0.00 0.00 34 1012.5
20260503234040 58 281 0.9 5.2 0.00 0.00 0.00 34 1012.4
20260503233537 58 342 1.7 6.1 0.00 0.00 0.00 34 1012.5
20260503233048 58 348 1.7 6.1 0.00 0.00 0.00 33 1012.5
20260503232537 59 261 1.7 7.0 0.00 0.00 0.00 33 1012.4
20260503232039 59 285 1.7 7.0 0.00 0.00 0.00 32 1012.4
20260503231547 59 321 2.6 7.0 0.00 0.00 0.00 32 1012.4
20260503231038 59 286 1.7 7.0 0.00 0.00 0.00 32 1012.4
20260503230537 59 266 2.6 9.6 0.00 0.00 0.00 32 1012.4
20260503230048 59 265 1.7 10.4 0.00 0.00 0.00 32 1012.4
20260503225537 60 252 2.6 10.4 0.00 0.00 0.00 31 1012.4
20260503225037 60 267 0.9 8.7 0.00 0.00 0.00 32 1012.3
20260503224544 60 285 2.6 8.7 0.00 0.00 0.00 32 1012.3
20260503224037 60 282 1.7 7.0 0.00 0.00 0.00 31 1012.3
20260503223537 61 313 2.6 9.6 0.00 0.00 0.00 31 1012.3
20260503223044 61 220 1.7 9.6 0.00 0.00 0.00 31 1012.3
20260503222537 61 272 1.7 7.8 0.00 0.00 0.00 32 1012.3
20260503222037 61 290 2.6 8.7 0.00 0.00 0.00 31 1012.3
20260503221541 61 321 2.6 9.6 0.00 0.00 0.00 31 1012.4
20260503221037 61 315 2.6 9.6 0.00 0.00 0.00 31 1012.4
20260503220537 61 247 3.5 9.6 0.00 0.00 0.00 30 1012.4
20260503220052 61 292 2.6 9.6 0.00 0.00 0.00 31 1012.4
20260503215536 61 282 3.5 7.8 0.00 0.00 0.00 32 1012.4
20260503215036 61 260 3.5 7.0 0.00 0.00 0.00 31 1012.3
20260503214552 61 220 1.7 7.0 0.00 0.00 0.00 31 1012.3
20260503214036 61 346 2.6 10.4 0.00 0.00 0.00 31 1012.4
20260503213537 62 81 2.6 10.4 0.00 0.00 0.00 31 1012.4
20260503213047 62 250 2.6 7.8 0.00 0.00 0.00 32 1012.4
20260503212539 61 284 1.7 7.0 0.00 0.00 0.00 31 1012.3
20260503212038 61 285 1.7 7.8 0.00 0.00 0.00 32 1012.3
20260503211547 61 41 2.6 8.7 0.00 0.00 0.00 31 1012.3
20260503211037 62 286 2.6 8.7 0.00 0.00 0.00 30 1012.3
20260503210537 62 300 1.7 11.3 0.00 0.00 0.00 31 1012.3
20260503205537 61 273 2.6 7.0 0.00 0.00 0.00 32 1012.4
20260503205035 61 261 1.7 9.6 0.00 0.00 0.00 33 1012.4
20260503204548 61 313 4.3 9.6 0.00 0.00 0.00 32 1012.4
20260503204040 60 248 2.6 7.8 0.00 0.00 0.00 32 1012.3
20260503203538 60 303 0.9 7.8 0.00 0.00 0.00 35 1012.4
20260503203052 60 80 1.7 7.8 0.00 0.00 0.00 32 1012.4
20260503202537 60 277 2.6 9.6 0.00 0.00 0.00 32 1012.5
20260503202037 60 344 2.6 9.6 0.00 0.00 0.00 32 1012.5
20260503201547 61 284 2.6 8.7 0.00 0.00 0.00 31 1012.5
20260503201038 61 279 3.5 8.7 0.00 0.00 0.00 31 1012.5
20260503200540 62 182 1.7 7.8 0.00 0.00 0.00 35 1012.5
20260503200050 61 280 1.7 8.7 0.00 0.00 0.00 32 1012.5
20260503195538 61 296 1.7 8.7 0.00 0.00 0.00 32 1012.6
20260503195037 61 274 2.6 8.7 0.00 0.00 0.00 32 1012.7
20260503194547 61 24 2.6 9.6 0.00 0.00 0.00 31 1012.9
20260503194037 61 307 4.3 9.6 0.00 0.00 0.00 30 1013.0
20260503193538 61 273 1.7 5.2 0.00 0.00 0.00 32 1013.0
20260503193049 60 250 2.6 7.0 0.00 0.00 0.00 34 1013.1
20260503192537 59 271 2.6 8.7 0.00 0.00 0.00 31 1013.0
20260503192037 60 240 1.7 12.2 0.00 0.00 0.00 32 1013.1
20260503191550 61 317 4.3 12.2 0.00 0.00 0.00 34 1013.2
20260503191038 60 284 2.6 8.7 0.00 0.00 0.00 39 1013.2
20260503190536 59 289 0.9 10.4 0.00 0.00 0.00 33 1013.2
20260503190049 59 15 1.7 10.4 0.00 0.00 0.00 33 1013.4
20260503185537 59 265 2.6 9.6 0.00 0.00 0.00 32 1013.6
20260503185038 60 327 2.6 7.0 0.00 0.00 0.00 33 1013.5
20260503184600 60 43 1.7 7.0 0.00 0.00 0.00 31 1013.6
20260503184038 59 254 1.7 6.1 0.00 0.00 0.00 34 1013.7
20260503183538 58 32 2.6 11.3 0.00 0.00 0.00 35 1013.7
20260503183056 58 238 2.6 11.3 0.00 0.00 0.00 33 1013.8
20260503182537 58 309 2.6 11.3 0.00 0.00 0.00 31 1013.9
20260503182036 58 291 1.7 8.7 0.00 0.00 0.00 32 1013.9
20260503181608 59 301 3.5 7.8 0.00 0.00 0.00 35 1014.0
20260503181036 58 264 1.7 8.7 0.00 0.00 0.00 33 1013.9
20260503180536 58 293 2.6 15.6 0.00 0.00 0.00 39 1013.8
20260503180047 58 300 4.3 15.6 0.00 0.00 0.00 34 1013.8
20260503175540 58 269 2.6 9.6 0.00 0.00 0.00 36 1014.0
20260503175036 57 254 2.6 9.6 0.00 0.00 0.00 36 1013.8
20260503174549 57 261 2.6 12.2 0.00 0.00 0.00 35 1013.9
20260503174037 58 104 2.6 12.2 0.00 0.00 0.00 34 1014.1
20260503173538 57 263 1.7 9.6 0.00 0.00 0.00 38 1014.1
20260503173058 57 270 2.6 9.6 0.00 0.00 0.00 44 1014.1
20260503172541 56 262 2.6 7.8 0.00 0.00 0.00 39 1014.1
20260503172036 55 247 2.6 7.8 0.00 0.00 0.00 35 1014.2
20260503171548 55 34 2.6 7.0 0.00 0.00 0.00 36 1014.3
20260503171036 55 26 0.9 6.1 0.00 0.00 0.00 36 1014.3
20260503170537 55 16 0.9 6.1 0.00 0.00 0.00 40 1014.3
20260503150537 51 134 2.6 9.6 0.00 0.00 0.00 39 1015.1
20260503131036 45 336 1.7 8.7 0.00 0.00 0.00 51 1015.6
20260503130537 45 302 0.9 8.7 0.00 0.00 0.00 52 1015.6
20260503110535 41 91 1.7 7.0 0.00 0.00 0.00 60 1014.7